Retour au catalogue

BREEZE-M R/B

ActifHEO
NORAD 34942·ROCKET BODY·🇷🇺 Russia

Lancé May 16, 2009 depuis Baikonur Cosmodrome

Loading…

Prochains Passages (prochaines 24 heures)

TLE

FraisSource: Space-Track

Époque: Sep 14, 2026, 21:16 UTC

1 34942U 09027B   26257.88664059 -.00000129  00000-0  00000-0 0  9991
2 34942   8.1498 288.7529 3395034 285.6723 264.9729  1.57274352 99569

Suivez BREEZE-M R/B en temps réel avec AllMySat

Download on the App Store